GW1004 Weather Reports


Display with metric or nautical units.
time (UTC)temp
F
wind
direction
speed
MPH
gust
MPH
rain 1hr
in
rain 24hr
in
rain mn
in
humidity
%
barometer
mb
20260504151051 68 212 3.0 3.0 0.00 0.00 0.00 38 1015.2
20260504150548 68 280 1.0 2.0 0.00 0.00 0.00 37 1015.1
20260504141015 64 196 4.0 5.0 0.00 0.00 0.00 50 1015.2
20260504140511 63 245 1.0 2.0 0.00 0.00 0.00 50 1015.2
20260504130436 59 197 5.0 6.0 0.00 0.00 0.00 62 1015.4
20260504110323 47 214 2.0 2.0 0.00 0.00 0.00 78 1016.0
20260504100240 47 230 3.0 3.0 0.00 0.00 0.00 73 1016.1
20260504081633 48 236 2.0 2.0 0.00 0.00 0.00 60 1015.9
20260504081129 48 237 3.0 5.0 0.00 0.00 0.00 60 1015.8
20260504080626 48 247 2.0 3.0 0.00 0.00 0.00 61 1016.0
20260504080122 48 241 2.0 3.0 0.00 0.00 0.00 61 1015.9
20260504050439 50 272 1.0 2.0 0.00 0.00 0.00 50 1015.9
20260504045936 50 257 1.0 2.0 0.00 0.00 0.00 50 1015.8
20260504045432 50 282 2.0 2.0 0.00 0.00 0.00 51 1015.9
20260504044928 51 264 1.0 2.0 0.00 0.00 0.00 50 1015.7
20260504044426 51 272 2.0 2.0 0.00 0.00 0.00 49 1015.7
20260504043923 51 274 1.0 1.0 0.00 0.00 0.00 49 1015.7
20260504043420 51 278 0.0 0.0 0.00 0.00 0.00 50 1015.7
20260504042917 51 277 1.0 2.0 0.00 0.00 0.00 49 1015.6
20260504042414 51 255 2.0 2.0 0.00 0.00 0.00 49 1015.6
20260504041910 51 268 0.0 1.0 0.00 0.00 0.00 49 1015.7
20260504041406 51 279 1.0 1.0 0.00 0.00 0.00 48 1015.6
20260504040902 51 278 1.0 1.0 0.00 0.00 0.00 48 1015.5
20260504040400 51 272 1.0 1.0 0.00 0.00 0.00 49 1015.3
20260504035856 51 269 1.0 1.0 0.00 0.00 0.00 49 1015.4
20260504035354 51 271 0.0 1.0 0.00 0.00 0.00 48 1015.4
20260504034850 51 278 1.0 1.0 0.00 0.00 0.00 49 1015.3
20260504034348 51 273 2.0 2.0 0.00 0.00 0.00 49 1015.4
20260504033844 51 267 2.0 2.0 0.00 0.00 0.00 49 1015.1
20260504033343 51 272 1.0 1.0 0.00 0.00 0.00 50 1015.4
20260504032839 51 273 0.0 1.0 0.00 0.00 0.00 49 1015.1
20260504032336 51 275 1.0 1.0 0.00 0.00 0.00 48 1015.4
20260504031833 51 267 1.0 1.0 0.00 0.00 0.00 49 1015.3
20260504031330 51 262 1.0 1.0 0.00 0.00 0.00 49 1015.3
20260504030826 51 260 1.0 2.0 0.00 0.00 0.00 49 1015.4
20260504030324 51 274 1.0 1.0 0.00 0.00 0.00 47 1015.2
20260504025820 51 282 0.0 1.0 0.00 0.00 0.00 48 1015.4
20260504025317 51 274 1.0 1.0 0.00 0.00 0.00 48 1015.2
20260504024814 52 261 0.0 1.0 0.00 0.00 0.00 47 1015.4
20260504024310 52 261 2.0 2.0 0.00 0.00 0.00 48 1015.4
20260504023807 52 270 1.0 1.0 0.00 0.00 0.00 46 1015.3
20260504023303 52 279 1.0 1.0 0.00 0.00 0.00 46 1015.3
20260504022759 52 267 2.0 2.0 0.00 0.00 0.00 46 1015.3
20260504022256 52 279 0.0 1.0 0.00 0.00 0.00 46 1015.4
20260504021752 52 277 1.0 1.0 0.00 0.00 0.00 46 1015.3
20260504021250 52 277 1.0 1.0 0.00 0.00 0.00 46 1015.2
20260504020747 52 274 1.0 1.0 0.00 0.00 0.00 46 1015.2
20260504020243 52 285 1.0 1.0 0.00 0.00 0.00 47 1015.2
20260504015739 52 293 1.0 1.0 0.00 0.00 0.00 46 1015.2
20260504015236 52 294 0.0 0.0 0.00 0.00 0.00 47 1015.2
20260504014732 52 297 0.0 0.0 0.00 0.00 0.00 47 1015.1
20260504014229 52 299 1.0 1.0 0.00 0.00 0.00 46 1015.3
20260504013726 52 300 0.0 1.0 0.00 0.00 0.00 46 1015.0
20260504013224 52 303 0.0 1.0 0.00 0.00 0.00 47 1015.1
20260504012720 53 303 0.0 0.0 0.00 0.00 0.00 46 1015.0
20260504012218 53 304 1.0 1.0 0.00 0.00 0.00 46 1015.0
20260504011715 53 304 0.0 0.0 0.00 0.00 0.00 45 1015.0
20260504011212 53 307 0.0 0.0 0.00 0.00 0.00 45 1014.9
20260504010708 53 307 0.0 1.0 0.00 0.00 0.00 45 1014.9
20260504010203 53 309 0.0 1.0 0.00 0.00 0.00 46 1014.7
20260504005700 52 310 0.0 0.0 0.00 0.00 0.00 47 1014.9
20260504005157 53 310 1.0 2.0 0.00 0.00 0.00 48 1014.7
20260504004655 53 311 0.0 1.0 0.00 0.00 0.00 47 1014.5
20260504004152 53 316 0.0 1.0 0.00 0.00 0.00 45 1014.5
20260504003648 53 322 0.0 0.0 0.00 0.00 0.00 44 1014.6
20260504003145 53 322 0.0 0.0 0.00 0.00 0.00 45 1014.4
20260504002642 53 322 0.0 0.0 0.00 0.00 0.00 45 1014.2
20260504002139 53 323 0.0 0.0 0.00 0.00 0.00 44 1014.3
20260504001637 53 323 0.0 0.0 0.00 0.00 0.00 46 1014.3
20260504001133 53 323 0.0 0.0 0.00 0.00 0.00 43 1014.2
20260504000630 54 323 0.0 0.0 0.00 0.00 0.00 46 1014.1
20260504000128 54 322 1.0 1.0 0.00 0.00 0.00 45 1014.1
20260503235626 54 322 0.0 0.0 0.00 0.00 0.00 44 1014.4
20260503235122 55 322 0.0 1.0 0.00 0.00 0.00 43 1014.1
20260503234620 55 335 0.0 0.0 0.00 0.00 0.00 43 1013.9
20260503234118 55 335 0.0 1.0 0.00 0.00 0.00 41 1014.0
20260503233615 55 319 0.0 0.0 0.00 0.00 0.00 40 1013.9
20260503233110 56 317 0.0 0.0 0.00 0.00 0.00 41 1013.9
20260503232607 56 323 0.0 0.0 0.00 0.00 0.00 41 1013.9
20260503232105 56 343 1.0 1.0 0.00 0.00 0.00 40 1013.9
20260503231603 56 336 1.0 1.0 0.00 0.00 0.00 40 1013.9
20260503231059 56 328 0.0 0.0 0.00 0.00 0.00 40 1013.9
20260503230555 57 356 1.0 1.0 0.00 0.00 0.00 41 1013.9
20260503230053 56 312 1.0 1.0 0.00 0.00 0.00 38 1013.9
20260503225550 57 327 0.0 0.0 0.00 0.00 0.00 39 1013.7
20260503225045 57 270 2.0 2.0 0.00 0.00 0.00 40 1013.8
20260503224543 57 351 0.0 1.0 0.00 0.00 0.00 38 1013.7
20260503224040 57 324 1.0 1.0 0.00 0.00 0.00 40 1013.7
20260503223538 57 323 0.0 0.0 0.00 0.00 0.00 38 1013.7
20260503223033 57 290 0.0 0.0 0.00 0.00 0.00 36 1013.9
20260503222532 57 279 1.0 2.0 0.00 0.00 0.00 37 1013.7
20260503222030 58 318 0.0 1.0 0.00 0.00 0.00 41 1013.7
20260503221528 58 300 1.0 1.0 0.00 0.00 0.00 35 1013.7
20260503221025 58 286 2.0 2.0 0.00 0.00 0.00 34 1013.8
20260503220521 58 83 1.0 3.0 0.00 0.00 0.00 35 1013.7
20260503220018 58 319 1.0 1.0 0.00 0.00 0.00 34 1013.5
20260503215515 58 64 2.0 2.0 0.00 0.00 0.00 36 1013.7
20260503215012 58 292 0.0 1.0 0.00 0.00 0.00 35 1013.6
20260503214510 58 354 1.0 1.0 0.00 0.00 0.00 34 1013.5
20260503214007 58 283 2.0 2.0 0.00 0.00 0.00 35 1013.7
20260503213505 58 304 1.0 1.0 0.00 0.00 0.00 35 1013.6
20260503213001 58 346 2.0 2.0 0.00 0.00 0.00 33 1013.5
20260503212459 59 335 2.0 3.0 0.00 0.00 0.00 36 1013.5
20260503211956 59 337 1.0 1.0 0.00 0.00 0.00 34 1013.6
20260503211453 59 332 0.0 0.0 0.00 0.00 0.00 36 1013.5
20260503210948 59 330 0.0 1.0 0.00 0.00 0.00 37 1013.4
20260503210445 58 206 1.0 1.0 0.00 0.00 0.00 34 1013.5
20260503205940 58 282 2.0 2.0 0.00 0.00 0.00 35 1013.6
20260503205437 58 335 1.0 1.0 0.00 0.00 0.00 34 1013.5
20260503204933 58 319 1.0 1.0 0.00 0.00 0.00 34 1013.7
20260503204431 58 300 1.0 1.0 0.00 0.00 0.00 33 1013.9
20260503203928 59 337 3.0 5.0 0.00 0.00 0.00 34 1013.8
20260503203425 59 308 0.0 1.0 0.00 0.00 0.00 35 1013.6
20260503202922 59 4 3.0 5.0 0.00 0.00 0.00 36 1013.9
20260503202420 59 324 2.0 2.0 0.00 0.00 0.00 34 1013.8
20260503201918 58 320 1.0 1.0 0.00 0.00 0.00 34 1013.7
20260503201415 59 345 2.0 2.0 0.00 0.00 0.00 36 1013.9
20260503200913 58 259 1.0 1.0 0.00 0.00 0.00 34 1013.8
20260503200408 57 345 2.0 3.0 0.00 0.00 0.00 35 1013.9
20260503195905 57 321 0.0 0.0 0.00 0.00 0.00 34 1013.8
20260503195403 58 323 1.0 2.0 0.00 0.00 0.00 34 1014.0
20260503194859 58 277 3.0 3.0 0.00 0.00 0.00 33 1013.9
20260503194355 58 326 3.0 5.0 0.00 0.00 0.00 36 1014.1
20260503193852 58 291 2.0 2.0 0.00 0.00 0.00 35 1014.2
20260503193347 58 309 2.0 5.0 0.00 0.00 0.00 33 1014.2
20260503192843 59 20 1.0 1.0 0.00 0.00 0.00 32 1014.0
20260503192339 58 3 3.0 5.0 0.00 0.00 0.00 36 1014.2
20260503191835 58 342 2.0 2.0 0.00 0.00 0.00 33 1014.3
20260503191333 58 341 0.0 1.0 0.00 0.00 0.00 36 1014.4
20260503190829 57 312 1.0 1.0 0.00 0.00 0.00 35 1014.5
20260503190327 58 10 3.0 3.0 0.00 0.00 0.00 33 1014.3
20260503185824 59 334 1.0 2.0 0.00 0.00 0.00 32 1014.3
20260503185319 57 1 2.0 2.0 0.00 0.00 0.00 37 1014.3
20260503184814 58 321 4.0 6.0 0.00 0.00 0.00 34 1014.6
20260503184310 59 302 2.0 2.0 0.00 0.00 0.00 33 1014.5
20260503183806 58 321 1.0 2.0 0.00 0.00 0.00 34 1014.5
20260503183304 58 47 3.0 5.0 0.00 0.00 0.00 35 1014.5
20260503182801 57 259 3.0 3.0 0.00 0.00 0.00 35 1014.5
20260503182300 58 330 3.0 5.0 0.00 0.00 0.00 35 1014.8
20260503181756 57 241 3.0 3.0 0.00 0.00 0.00 33 1014.6
20260503181254 60 332 1.0 2.0 0.00 0.00 0.00 34 1014.7
20260503180750 60 35 1.0 1.0 0.00 0.00 0.00 34 1014.7
20260503180248 60 245 3.0 3.0 0.00 0.00 0.00 31 1014.7
20260503175744 59 288 2.0 2.0 0.00 0.00 0.00 32 1014.6
20260503175243 58 358 1.0 2.0 0.00 0.00 0.00 34 1014.6
20260503174738 59 284 3.0 5.0 0.00 0.00 0.00 33 1014.7
20260503174237 59 297 2.0 2.0 0.00 0.00 0.00 34 1014.8
20260503173736 58 217 2.0 2.0 0.00 0.00 0.00 34 1014.9
20260503173233 58 335 5.0 7.0 0.00 0.00 0.00 33 1015.0
20260503172730 58 334 2.0 3.0 0.00 0.00 0.00 33 1014.8
20260503172227 58 68 2.0 2.0 0.00 0.00 0.00 33 1014.9
20260503171723 58 123 2.0 3.0 0.00 0.00 0.00 35 1014.9
20260503171220 59 111 5.0 10.0 0.00 0.00 0.00 34 1015.0
20260503170717 58 6 1.0 2.0 0.00 0.00 0.00 35 1014.9
20260503170214 57 1 2.0 2.0 0.00 0.00 0.00 39 1015.0
20260503160136 52 321 1.0 1.0 0.00 0.00 0.00 43 1015.6